Location: Unspecified
(33.6682°S, 0.0000°E)
Time: 00:28:25
(UTC+00:00)

Tiros 1 despin weight - Pass Details

Date: 17 June 2019
Orbit: 594 x 642 km, 48.2° (Epoch: 20 July)

Event Time Altitude Azimuth Distance (km) Brightness Sun altitude
Rises 13:49:45 0° 271° (W) 2,945 ? 27.3°
Reaches altitude 10° 13:52:28 10° 257° (WSW) 2,045 ? 27.1°
Maximum altitude 13:56:18 24° 202° (SSW) 1,351 ? 26.7°
Drops below altitude 10° 14:00:09 10° 148° (SSE) 2,059 ? 26.3°
Sets 14:02:54 0° 134° (SE) 2,971 ? 26.0°
